THY9ZN LTFM-LTAN

Flight info

Callsign THY9ZN
Flight time 0h 50m
Altitude 31000
Route RATVU1E/36 RATVU UT35 DOKUB UT76 KFK UB545 HISAR
Aircraft A321/M-SDE3FGHIRWY/LB1

Departure

Time 2026-04-11 10:28
Airport İstanbul Airport (LTFM)

Arrival

Time 2026-04-11 11:19
Airport Konya Airport (LTAN)
Time Latitude Longitude Altitude Speed Heading
2026-04-11 09:52 41.25705 28.74789 334 ft 0 kts 359°
2026-04-11 10:14 41.25684 28.74790 331 ft 3 kts 359°
2026-04-11 10:14 41.25660 28.74795 332 ft 4 kts 323°
2026-04-11 10:14 41.25646 28.74821 332 ft 4 kts 279°
2026-04-11 10:14 41.25644 28.74853 331 ft 1 kts 269°
2026-04-11 10:15 41.25644 28.74884 331 ft 4 kts 269°
2026-04-11 10:15 41.25645 28.74920 331 ft 4 kts 269°
2026-04-11 10:15 41.25645 28.74956 331 ft 4 kts 269°
2026-04-11 10:15 41.25646 28.74984 331 ft 3 kts 270°
2026-04-11 10:16 41.25642 28.75017 331 ft 4 kts 301°
2026-04-11 10:16 41.25625 28.75040 329 ft 4 kts 342°
2026-04-11 10:16 41.25605 28.75044 329 ft 4 kts 359°
2026-04-11 10:16 41.25580 28.75045 332 ft 1 kts 359°
2026-04-11 10:22 41.25581 28.75045 334 ft 1 kts 359°
2026-04-11 10:23 41.25595 28.75044 331 ft 3 kts 359°
2026-04-11 10:23 41.25622 28.75049 333 ft 5 kts 14°
2026-04-11 10:23 41.25643 28.75085 329 ft 6 kts 69°
2026-04-11 10:23 41.25647 28.75148 332 ft 8 kts 88°
2026-04-11 10:24 41.25648 28.75227 330 ft 9 kts 89°
2026-04-11 10:24 41.25650 28.75320 333 ft 7 kts 89°
2026-04-11 10:24 41.25665 28.75390 331 ft 9 kts 46°
2026-04-11 10:24 41.25727 28.75405 333 ft 10 kts
2026-04-11 10:25 41.25803 28.75402 332 ft 12 kts 358°
2026-04-11 10:25 41.25890 28.75400 332 ft 13 kts 359°
2026-04-11 10:25 41.25988 28.75398 330 ft 15 kts 358°
2026-04-11 10:25 41.26096 28.75395 334 ft 13 kts
2026-04-11 10:26 41.26186 28.75393 333 ft 12 kts 359°
2026-04-11 10:26 41.26247 28.75426 333 ft 9 kts 63°
2026-04-11 10:26 41.26248 28.75495 334 ft 8 kts 90°
2026-04-11 10:26 41.26248 28.75574 334 ft 9 kts 90°
2026-04-11 10:27 41.26254 28.75653 330 ft 7 kts 60°
2026-04-11 10:27 41.26301 28.75668 331 ft 8 kts 359°
2026-04-11 10:27 41.26311 28.75668 331 ft 0 kts 359°
2026-04-11 10:27 41.26371 28.75668 333 ft 34 kts 359°
2026-04-11 10:28 41.26876 28.75658 335 ft 110 kts 359°
2026-04-11 10:28 41.27860 28.75635 410 ft 161 kts 359°
2026-04-11 10:28 41.28986 28.75587 1205 ft 161 kts
2026-04-11 10:28 41.30122 28.75754 1893 ft 175 kts 21°
2026-04-11 10:29 41.31180 28.76714 2249 ft 196 kts 37°
2026-04-11 10:29 41.32362 28.77804 2480 ft 218 kts 33°
2026-04-11 10:29 41.33727 28.78948 2777 ft 245 kts 31°
2026-04-11 10:29 41.35226 28.80143 3564 ft 254 kts 30°
2026-04-11 10:30 41.36762 28.81347 4490 ft 258 kts 31°
2026-04-11 10:30 41.38020 28.83049 5336 ft 266 kts 62°
2026-04-11 10:30 41.38418 28.85466 6193 ft 272 kts 88°
2026-04-11 10:30 41.38450 28.88000 7070 ft 276 kts 89°
2026-04-11 10:31 41.38301 28.90558 7895 ft 281 kts 106°
2026-04-11 10:31 41.37366 28.92844 8705 ft 286 kts 133°
2026-04-11 10:31 41.35743 28.94348 9539 ft 288 kts 161°
2026-04-11 10:31 41.33771 28.94779 10265 ft 295 kts 180°
2026-04-11 10:32 41.31645 28.94829 10529 ft 318 kts 181°
2026-04-11 10:32 41.29373 28.94848 10996 ft 331 kts 181°
2026-04-11 10:32 41.27049 28.94865 11719 ft 336 kts 181°
2026-04-11 10:32 41.24701 28.94865 12503 ft 339 kts 183°
2026-04-11 10:33 41.22329 28.94734 13278 ft 343 kts 185°
2026-04-11 10:33 41.19941 28.94510 14048 ft 346 kts 186°
2026-04-11 10:33 41.17526 28.94243 14731 ft 350 kts 187°
2026-04-11 10:33 41.15086 28.93969 15424 ft 354 kts 187°
2026-04-11 10:34 41.12618 28.93704 16115 ft 358 kts 187°
2026-04-11 10:34 41.10118 28.93451 16813 ft 362 kts 187°
2026-04-11 10:34 41.07593 28.93208 17500 ft 367 kts 187°
2026-04-11 10:34 41.05029 28.92969 18175 ft 371 kts 187°
2026-04-11 10:35 41.02399 28.92732 18788 ft 376 kts 188°
2026-04-11 10:35 40.99778 28.92474 19330 ft 381 kts 189°
2026-04-11 10:35 40.97118 28.92157 19870 ft 386 kts 190°
2026-04-11 10:35 40.94427 28.91804 20413 ft 391 kts 191°
2026-04-11 10:36 40.91696 28.91436 20948 ft 397 kts 191°
2026-04-11 10:36 40.88940 28.91067 21472 ft 402 kts 191°
2026-04-11 10:36 40.86097 28.90968 21989 ft 414 kts 182°
2026-04-11 10:36 40.83209 28.91204 22519 ft 419 kts 182°
2026-04-11 10:37 40.80274 28.91447 23036 ft 425 kts 182°
2026-04-11 10:37 40.77307 28.91690 23539 ft 430 kts 183°
2026-04-11 10:37 40.74305 28.91935 23978 ft 435 kts 183°
2026-04-11 10:37 40.71269 28.92182 24399 ft 439 kts 183°
2026-04-11 10:38 40.68204 28.92430 24819 ft 443 kts 183°
2026-04-11 10:38 40.65122 28.92680 25241 ft 446 kts 184°
2026-04-11 10:38 40.58870 28.93263 26066 ft 458 kts 179°
2026-04-11 10:39 40.55720 28.94182 26466 ft 470 kts 168°
2026-04-11 10:39 40.52654 28.95808 26853 ft 480 kts 157°
2026-04-11 10:39 40.49768 28.98089 27225 ft 488 kts 150°
2026-04-11 10:39 40.46912 29.00547 27587 ft 492 kts 150°
2026-04-11 10:40 40.44037 29.03008 27954 ft 496 kts 150°
2026-04-11 10:40 40.41129 29.05483 28321 ft 500 kts 150°
2026-04-11 10:40 40.38203 29.07966 28685 ft 503 kts 151°
2026-04-11 10:40 40.35251 29.10466 29058 ft 507 kts 151°
2026-04-11 10:41 40.32234 29.13019 29412 ft 511 kts 151°
2026-04-11 10:41 40.29249 29.15546 29764 ft 514 kts 151°
2026-04-11 10:41 40.26232 29.18104 30137 ft 518 kts 151°
2026-04-11 10:41 40.23196 29.20677 30426 ft 521 kts 151°
2026-04-11 10:42 40.20133 29.23222 30739 ft 522 kts 154°
2026-04-11 10:42 40.16858 29.25366 31045 ft 518 kts 162°
2026-04-11 10:42 40.10210 29.28602 31152 ft 496 kts 166°
2026-04-11 10:43 40.00638 29.33126 31145 ft 485 kts 166°
2026-04-11 10:44 39.95360 29.35606 31133 ft 486 kts 166°
2026-04-11 10:44 39.89012 29.38640 31133 ft 487 kts 165°
2026-04-11 10:45 39.82698 29.42037 31131 ft 489 kts 162°
2026-04-11 10:45 39.76470 29.45602 31118 ft 489 kts 162°
2026-04-11 10:46 39.70231 29.49104 31114 ft 488 kts 163°
2026-04-11 10:46 39.63977 29.52523 31106 ft 487 kts 164°
2026-04-11 10:47 39.57694 29.55752 31113 ft 485 kts 166°
2026-04-11 10:47 39.51385 29.58817 31104 ft 484 kts 166°
2026-04-11 10:48 39.45082 29.61894 31104 ft 484 kts 166°
2026-04-11 10:48 39.38808 29.65018 31100 ft 483 kts 166°
2026-04-11 10:49 39.32539 29.68156 31097 ft 483 kts 166°
2026-04-11 10:49 39.26279 29.71267 31100 ft 482 kts 166°
2026-04-11 10:50 39.20021 29.74359 31102 ft 481 kts 166°
2026-04-11 10:50 39.13775 29.77442 31098 ft 480 kts 166°
2026-04-11 10:51 39.07545 29.80509 31094 ft 479 kts 167°
2026-04-11 10:51 39.01283 29.83584 31085 ft 478 kts 166°
2026-04-11 10:52 38.95208 29.87113 31088 ft 488 kts 152°
2026-04-11 10:52 38.92532 29.89840 31087 ft 495 kts 139°
2026-04-11 10:52 38.90298 29.93219 31087 ft 499 kts 125°
2026-04-11 10:52 38.88615 29.97107 31083 ft 499 kts 112°
2026-04-11 10:53 38.87566 30.01329 31080 ft 495 kts 98°
2026-04-11 10:53 38.86427 30.10030 31076 ft 495 kts 96°
2026-04-11 10:54 38.85272 30.18736 31077 ft 496 kts 97°
2026-04-11 10:54 38.84101 30.27466 31077 ft 496 kts 97°
2026-04-11 10:55 38.82924 30.36187 31075 ft 497 kts 97°
2026-04-11 10:55 38.81740 30.44928 30880 ft 495 kts 97°
2026-04-11 10:55 38.81018 30.49231 30451 ft 493 kts 105°
2026-04-11 10:56 38.79853 30.53349 30013 ft 490 kts 115°
2026-04-11 10:56 38.78270 30.57189 29528 ft 485 kts 124°
2026-04-11 10:56 38.76324 30.60680 29034 ft 478 kts 134°
2026-04-11 10:56 38.74162 30.63887 28558 ft 475 kts 135°
2026-04-11 10:57 38.72001 30.67070 28087 ft 472 kts 135°
2026-04-11 10:57 38.69850 30.70235 27611 ft 470 kts 135°
2026-04-11 10:57 38.67709 30.73379 27162 ft 468 kts 135°
2026-04-11 10:57 38.65572 30.76507 26709 ft 466 kts 136°
2026-04-11 10:58 38.63443 30.79622 26273 ft 464 kts 136°
2026-04-11 10:58 38.61293 30.82766 25833 ft 463 kts 136°
2026-04-11 10:58 38.59178 30.85855 25406 ft 460 kts 136°
2026-04-11 10:58 38.57073 30.88929 24983 ft 458 kts 136°
2026-04-11 10:59 38.54978 30.91985 24571 ft 457 kts 136°
2026-04-11 10:59 38.52892 30.95023 24164 ft 455 kts 136°
2026-04-11 10:59 38.50802 30.98062 23751 ft 454 kts 136°
2026-04-11 10:59 38.48718 31.01089 23299 ft 452 kts 136°
2026-04-11 11:00 38.46647 31.04093 22820 ft 449 kts 136°
2026-04-11 11:00 38.44585 31.07064 22362 ft 446 kts 136°
2026-04-11 11:00 38.42532 31.10010 21892 ft 443 kts 136°
2026-04-11 11:00 38.40488 31.12934 21442 ft 440 kts 136°
2026-04-11 11:01 38.38454 31.15841 20996 ft 438 kts 136°
2026-04-11 11:01 38.36434 31.18723 20554 ft 435 kts 136°
2026-04-11 11:01 38.34428 31.21588 20123 ft 431 kts 136°
2026-04-11 11:01 38.32439 31.24428 19682 ft 427 kts 136°
2026-04-11 11:02 38.30470 31.27240 19268 ft 424 kts 136°
2026-04-11 11:02 38.28511 31.30040 18854 ft 422 kts 136°
2026-04-11 11:02 38.26569 31.32818 18448 ft 419 kts 136°
2026-04-11 11:02 38.24639 31.35576 17991 ft 415 kts 135°
2026-04-11 11:03 38.22727 31.38307 17523 ft 411 kts 135°
2026-04-11 11:03 38.20833 31.41001 17058 ft 408 kts 136°
2026-04-11 11:03 38.18944 31.43676 16622 ft 404 kts 136°
2026-04-11 11:03 38.17091 31.46295 16334 ft 394 kts 136°
2026-04-11 11:04 38.15275 31.48861 16067 ft 386 kts 136°
2026-04-11 11:04 38.13504 31.51369 15804 ft 377 kts 136°
2026-04-11 11:04 38.11804 31.53879 15536 ft 372 kts 130°
2026-04-11 11:04 38.10373 31.56608 15284 ft 370 kts 123°
2026-04-11 11:05 38.09054 31.59401 15022 ft 367 kts 123°
2026-04-11 11:05 38.07738 31.62176 14777 ft 366 kts 123°
2026-04-11 11:05 38.06434 31.64922 14524 ft 363 kts 123°
2026-04-11 11:05 38.05135 31.67656 14278 ft 361 kts 124°
2026-04-11 11:06 38.03840 31.70377 14028 ft 358 kts 123°
2026-04-11 11:06 38.02556 31.73074 13778 ft 357 kts 124°
2026-04-11 11:06 38.01276 31.75759 13502 ft 354 kts 124°
2026-04-11 11:06 38.00010 31.78416 13229 ft 350 kts 123°
2026-04-11 11:07 37.98737 31.81080 12952 ft 347 kts 123°
2026-04-11 11:07 37.97492 31.83684 12681 ft 344 kts 123°
2026-04-11 11:07 37.96261 31.86265 12414 ft 340 kts 123°
2026-04-11 11:07 37.95045 31.88817 12221 ft 337 kts 123°
2026-04-11 11:08 37.93850 31.91316 12063 ft 335 kts 123°
2026-04-11 11:08 37.92626 31.93870 11918 ft 334 kts 123°
2026-04-11 11:08 37.91426 31.96374 11758 ft 331 kts 123°
2026-04-11 11:08 37.90234 31.98859 11584 ft 329 kts 123°
2026-04-11 11:09 37.89050 32.01325 11439 ft 326 kts 123°
2026-04-11 11:09 37.87877 32.03761 11274 ft 324 kts 123°
2026-04-11 11:09 37.86704 32.06200 11123 ft 323 kts 123°
2026-04-11 11:09 37.85544 32.08617 10958 ft 321 kts 123°
2026-04-11 11:10 37.84387 32.11024 10820 ft 319 kts 123°
2026-04-11 11:10 37.83236 32.13413 10650 ft 317 kts 123°
2026-04-11 11:10 37.82093 32.15783 10393 ft 314 kts 123°
2026-04-11 11:10 37.80961 32.18129 10161 ft 311 kts 123°
2026-04-11 11:11 37.79841 32.20447 9925 ft 308 kts 123°
2026-04-11 11:11 37.78741 32.22727 9695 ft 301 kts 123°
2026-04-11 11:11 37.77654 32.24975 9448 ft 297 kts 123°
2026-04-11 11:11 37.76580 32.27198 9210 ft 295 kts 123°
2026-04-11 11:12 37.75512 32.29407 8966 ft 293 kts 123°
2026-04-11 11:12 37.74449 32.31595 8732 ft 292 kts 123°
2026-04-11 11:12 37.73386 32.33782 8490 ft 291 kts 123°
2026-04-11 11:12 37.72329 32.35955 8250 ft 289 kts 123°
2026-04-11 11:13 37.71302 32.38124 8020 ft 288 kts 117°
2026-04-11 11:13 37.70759 32.40531 7788 ft 284 kts 94°
2026-04-11 11:13 37.70986 32.42952 7562 ft 276 kts 70°
2026-04-11 11:13 37.71892 32.45030 7330 ft 267 kts 47°
2026-04-11 11:14 37.73302 32.46500 7118 ft 260 kts 26°
2026-04-11 11:14 37.74978 32.47282 6886 ft 256 kts 14°
2026-04-11 11:14 37.76677 32.47918 6659 ft 254 kts 14°
2026-04-11 11:14 37.78379 32.48559 6435 ft 251 kts 14°
2026-04-11 11:15 37.80043 32.49187 6190 ft 248 kts 14°
2026-04-11 11:15 37.81685 32.49808 5989 ft 243 kts 14°
2026-04-11 11:15 37.82751 32.50210 5832 ft 239 kts 15°
2026-04-11 11:15 37.84306 32.50798 5696 ft 227 kts 14°
2026-04-11 11:16 37.85788 32.51358 5680 ft 217 kts 15°
2026-04-11 11:16 37.87210 32.51896 5477 ft 201 kts 15°
2026-04-11 11:16 37.88469 32.52373 5211 ft 182 kts 14°
2026-04-11 11:16 37.89652 32.52821 4975 ft 166 kts 14°
2026-04-11 11:17 37.90718 32.53224 4693 ft 155 kts 14°
2026-04-11 11:17 37.91736 32.53608 4444 ft 150 kts 16°
2026-04-11 11:17 37.92728 32.53983 4203 ft 147 kts 17°
2026-04-11 11:17 37.93699 32.54351 3993 ft 145 kts 17°
2026-04-11 11:18 37.94667 32.54714 3795 ft 144 kts 17°
2026-04-11 11:18 37.95625 32.55075 3606 ft 144 kts 17°
2026-04-11 11:18 37.96582 32.55449 3426 ft 144 kts 15°
2026-04-11 11:18 37.97475 32.55782 3390 ft 115 kts 17°
2026-04-11 11:19 37.98077 32.56012 3392 ft 66 kts 16°
2026-04-11 11:19 37.98400 32.56134 3389 ft 37 kts 17°
2026-04-11 11:19 37.98614 32.56218 3389 ft 25 kts 16°
2026-04-11 11:19 37.98706 32.56276 3389 ft 10 kts 72°
2026-04-11 11:20 37.98692 32.56349 3390 ft 9 kts 108°
2026-04-11 11:20 37.98671 32.56429 3390 ft 10 kts 108°
2026-04-11 11:20 37.98648 32.56521 3392 ft 11 kts 107°
2026-04-11 11:20 37.98625 32.56627 3392 ft 14 kts 105°
2026-04-11 11:21 37.98594 32.56755 3392 ft 16 kts 107°
2026-04-11 11:21 37.98558 32.56903 3391 ft 19 kts 107°
2026-04-11 11:21 37.98518 32.57069 3391 ft 21 kts 106°
2026-04-11 11:21 37.98482 32.57221 3391 ft 13 kts 107°
2026-04-11 11:22 37.98455 32.57334 3391 ft 14 kts 107°
2026-04-11 11:22 37.98435 32.57435 3391 ft 10 kts 82°
2026-04-11 11:22 37.98490 32.57476 3391 ft 8 kts 15°
2026-04-11 11:22 37.98541 32.57501 3391 ft 7 kts 41°
2026-04-11 11:23 37.98542 32.57548 3391 ft 3 kts 105°